Weather observations for the past three days for
Houston, Houston Hobby Airport
Metric (Imperial)
Date Time (cdt) Wind (kph) Vis. (km) Weather Sky Cond. Temperature (ºC) Relative Humidity Wind Chill (°C) Heat Index (°C) Pressure Precipitation (cm)
Air Dwpt 6 hour altimeter (cm) sea level (mb) 1 hr 3 hr 6 hr
Max. Min.
21 10:53 E 20 16.09 Partly Cloudy SCT025 30 23.3 67% 34 76.48 1019.9
21 09:53 E 17 14.48 Mostly Cloudy BKN020 29.4 23.9 72% 34 76.45 1019.8
21 08:53 NE 19 16.09 A Few Clouds FEW018 FEW250 28.3 23.9 77% 32 76.43 1019.4
21 07:53 NE 13 16.09 A Few Clouds FEW015 FEW250 27.2 24.4 85% 31 76.4 1019.0
21 06:53 NE 13 16.09 Partly Cloudy FEW020 FEW045 SCT250 26.1 23.9 28.3 26.1 88% 28 76.4 1018.8 0.03
21 05:53 NE 9 16.09 Partly Cloudy FEW016 FEW026 SCT080 SCT250 26.1 24.4 90% 28 76.38 1018.6
21 04:53 NE 7 16.09 Partly Cloudy FEW020 SCT045 26.1 24.4 90% 28 76.38 1018.4
21 03:53 E 11 16.09 Mostly Cloudy FEW015 SCT022 BKN048 26.7 24.4 87% 30 76.35 1018.4 0.03 0.03
21 02:53 E 9 16.09 Partly Cloudy FEW020 SCT029 SCT090 27.2 24.4 85% 31 76.38 1018.5
21 01:53 E 17 16.09 Partly Cloudy SCT018 SCT025 27.8 24.4 82% 32 76.4 1019.1
21 00:53 E 13 16.09 Partly Cloudy FEW015 SCT020 SCT200 27.8 24.4 30.6 27.8 82% 32 76.45 1019.5
20 23:53 E 22 16.09 Partly Cloudy FEW015 SCT025 28.3 24.4 79% 33 76.43 1019.3
20 22:53 E 24 G 39 16.09 Mostly Cloudy FEW016 BKN026 28.3 24.4 79% 33 76.4 1019.1
20 21:53 E 17 16.09 Partly Cloudy SCT022 28.9 24.4 77% 34 76.38 1018.6
20 20:53 E 22 16.09 Partly Cloudy SCT022 SCT100 28.9 24.4 77% 34 76.35 1018.1
20 19:53 E 26 G 44 16.09 A Few Clouds FEW024 FEW100 29.4 23.3 70% 34 76.33 1017.8
20 18:53 E 26 G 43 16.09 Partly Cloudy SCT025 SCT100 SCT250 30.6 23.9 33.3 30.6 67% 36 76.3 1017.5
20 17:53 E 30 16.09 Partly Cloudy FEW010 SCT028 SCT100 SCT250 31.7 23.9 63% 37 76.28 1017.3
20 16:53 E 35 G 46 16.09 Partly Cloudy and Breezy SCT026 SCT250 32.2 24.4 63% 39 76.28 1017.4
20 15:53 E 37 G 52 16.09 Partly Cloudy and Breezy SCT030 SCT250 32.2 23.3 59% 37 76.33 1017.9
20 14:53 E 31 G 48 16.09 Partly Cloudy SCT030 SCT250 32.8 23.9 59% 39 76.33 1018.1
20 13:53 E 39 G 52 16.09 Partly Cloudy and Breezy SCT030 32.2 24.4 63% 39 76.35 1018.4
20 12:53 E 33 G 44 16.09 Partly Cloudy and Breezy SCT028 31.7 23.9 32.2 26.7 63% 37 76.38 1018.7
20 11:53 E 28 G 44 16.09 Light Rain BKN022 30.6 23.9 67% 36 76.4 1018.9
20 10:53 E 30 G 41 16.09 Mostly Cloudy BKN020 29.4 24.4 75% 35 76.35 1018.4
20 09:53 E 26 16.09 Overcast BKN016 OVC026 28.9 24.4 77% 34 76.33 1018.1
20 08:53 E 28 16.09 Overcast BKN015 OVC033 27.8 24.4 82% 32 76.3 1017.6
20 07:53 E 24 16.09 Overcast BKN013 OVC023 27.2 24.4 85% 31 76.23 1016.6
20 06:53 E 22 12.87 Mostly Cloudy SCT012 BKN024 BKN046 26.7 24.4 27.2 26.7 87% 30 76.17 1015.9 0.08
20 05:53 E 20 12.87 Overcast BKN014 BKN020 OVC030 26.7 24.4 87% 30 76.12 1015.4
20 04:53 E 22 12.87 Mostly Cloudy SCT014 BKN020 BKN025 BKN160 26.7 24.4 87% 30 76.12 1015.2
20 03:53 E 19 16.09 Mostly Cloudy SCT020 BKN032 BKN040 BKN160 26.7 24.4 87% 30 76.1 1015.0 0.03 0.08
20 02:53 E 19 16.09 Mostly Cloudy FEW022 SCT045 BKN060 BKN180 26.7 24.4 87% 30 76.1 1015.0 0.05
20 01:53 E 19 16.09 Mostly Cloudy SCT022 BKN030 BKN050 BKN180 27.2 24.4 85% 31 76.1 1015.0
20 00:53 E 17 16.09 Mostly Cloudy SCT022 BKN034 BKN080 BKN180 27.2 24.4 27.8 26.7 85% 31 76.15 1015.6 0.03
19 23:53 E 19 16.09 Mostly Cloudy FEW025 SCT065 SCT100 BKN250 27.2 24.4 85% 31 76.15 1015.7
19 22:53 E 20 16.09 Mostly Cloudy FEW025 SCT085 BKN250 26.7 23.9 85% 29 76.12 1015.3
19 21:53 E 24 16.09 Overcast SCT030 BKN085 BKN150 OVC250 27.8 24.4 82% 32 76.07 1014.8 0.03
19 20:53 NE 22 16.09 Overcast SCT025 BKN036 OVC070 27.2 25 88% 31 76.02 1014.0
19 19:53 E 19 12.87 Overcast SCT025 SCT070 BKN110 OVC250 27.2 25 88% 31 76 1013.5 0.03
19 18:53 E 20 12.87 Light Rain SCT025 SCT055 BKN110 BKN160 26.7 25 28.9 25.6 90% 30 75.95 1012.9 0.13 2.06
19 17:53 SE 30 G 43 11.27 Light Rain FEW008 BKN045 BKN120 27.2 25 88% 31 75.95 1013.1 0.08
19 16:53 SE 13 9.66 Rain Fog/Mist SCT025 BKN060 OVC110 26.7 25 90% 30 75.95 1013.0 0.2
19 15:53 E 17 11.27 Light Rain SCT025 BKN050 OVC085 27.2 25 88% 31 75.9 1012.4 0.69 1.65
19 14:53 E 22 14.48 Light Rain BKN030 BKN045 OVC060 27.8 25.6 88% 33 75.9 1012.3 0.3
19 13:53 NE 24 16.09 Overcast SCT035 BKN055 OVC250 27.8 25.6 88% 33 75.95 1013.0 0.66
19 12:53 E 22 4.83 Rain Fog/Mist BKN020 OVC040 26.7 25 27.2 25.6 90% 30 76 1013.6 0.25 0.51
19 11:53 NE 22 11.27 Rain SCT020 BKN035 OVC060 27.2 24.4 85% 31 75.97 1013.3 0.1
19 10:53 NE 30 G 43 16.09 Overcast BKN018 OVC045 26.7 23.9 85% 29 75.95 1012.9
19 09:53 NE 17 G 37 16.09 Light Rain FEW013 BKN080 OVC100 26.1 23.9 88% 28 75.95 1012.8 0.03 0.15
19 08:53 NE 26 16.09 Light Rain SCT012 SCT075 OVC110 25.6 23.9 90% 27 75.92 1012.6 0.03
19 07:53 NE 20 16.09 Light Rain SCT012 SCT050 OVC090 25.6 23.9 90% 27 75.87 1011.9 0.1
19 06:53 NE 19 11.27 Rain BKN010 BKN055 OVC070 25.6 23.9 26.7 25.6 90% 27 75.84 1011.5 0.13 0.48
19 05:53 E 20 11.27 Light Rain BKN012 BKN024 OVC060 25.6 24.4 93% 27 75.79 1010.8 0.13
19 04:53 NE 19 11.27 Rain SCT014 BKN044 OVC100 26.1 24.4 90% 28 75.74 1010.3 0.1
19 03:53 E 17 12.87 Light Rain SCT018 BKN080 BKN100 26.1 24.4 90% 28 75.77 1010.5 0.08 0.13
19 02:53 E 26 G 41 12.87 Light Rain FEW016 BKN040 OVC100 26.1 23.9 88% 28 75.79 1010.9 0.05
19 01:53 E 24 12.87 Mostly Cloudy SCT018 BKN028 BKN040 BKN140 26.7 23.3 82% 29 75.82 1011.1
19 00:53 E 26 16.09 Mostly Cloudy SCT016 BKN024 BKN042 BKN180 26.7 23.3 28.9 26.7 82% 29 75.84 1011.5
18 23:53 E 24 16.09 Mostly Cloudy SCT016 BKN026 BKN060 BKN180 26.7 23.3 82% 29 75.84 1011.5
18 22:53 E 22 G 35 16.09 Mostly Cloudy SCT016 BKN024 BKN065 BKN240 26.7 23.3 82% 29 75.82 1011.3
18 21:53 E 30 G 46 16.09 Mostly Cloudy BKN022 BKN030 BKN140 27.8 22.8 74% 31 75.82 1011.0
18 20:53 E 30 G 44 16.09 Mostly Cloudy SCT026 BKN034 BKN150 BKN250 27.8 22.2 72% 30 75.79 1010.9
18 19:53 E 30 G 43 16.09 Mostly Cloudy SCT025 BKN130 BKN250 28.3 22.2 70% 31 75.79 1010.9
18 18:53 E 39 G 52 16.09 Mostly Cloudy and Breezy SCT032 SCT065 BKN100 BKN250 28.9 22.2 32.8 24.4 67% 32 75.79 1010.7 0.56
18 17:53 E 41 G 54 16.09 Mostly Cloudy and Breezy SCT022 SCT090 BKN140 BKN250 29.4 21.1 61% 32 75.77 1010.6
18 16:53 E 24 16.09 Mostly Cloudy FEW025 SCT140 BKN180 BKN250 28.3 22.8 72% 32 75.77 1010.4
18 15:53 NE 26 12.87 Light Rain FEW025 SCT045 OVC075 25 22.8 88% 26 75.82 1011.2 0.46 0.56
18 14:53 E 31 G 44 8.05 Rain BKN040 OVC070 26.7 22.8 79% 29 75.79 1011.0 0.1
18 13:53 E 31 G 44 16.09 Mostly Cloudy SCT030 BKN120 32.8 23.3 57% 38 75.79 1010.7
18 12:53 E 17 16.09 Overcast FEW025 FEW050 OVC080 28.3 21.1 32.8 27.2 65% 31 75.82 1011.1
18 11:53 E 28 G 48 16.09 Partly Cloudy SCT025 SCT120 32.2 23.9 62% 38 75.79 1010.7
Date Time (cdt) Wind (kph) Vis. (km) Weather Sky Cond. Air Dwpt Max. Min. Relative Humidity Wind Chill (°C) Heat Index (°C) altimeter (cm) sea level (mb) 1 hr 3 hr 6 hr
6 hour
Temperature (ºC) Pressure Precipitation (cm)